This is the latest recevied weather packets stored in our database for station/object KR8N. If no packets are shown the sender has not sent any weather packets the latest 10 day(s).
| Time | Temp. | Humidity | Pressure | Rain* | Wind** | Luminosity | Snow |
|---|---|---|---|---|---|---|---|
| 1777776886 | 5.56° C | 58% | 1019 hPa | 0 mm | - | 0 W/m² | - |
| 1777776583 | 6.11° C | 56% | 1018.9 hPa | 0 mm | - | 0 W/m² | - |
| 1777776280 | 6.11° C | 53% | 1019 hPa | 0 mm | - | 0 W/m² | - |
| 1777775977 | 6.11° C | 53% | 1018.9 hPa | 0 mm | - | 0 W/m² | - |
| 1777775674 | 6.11° C | 54% | 1018.9 hPa | 0 mm | - | 0 W/m² | - |
| 1777775371 | 6.67° C | 56% | 1018.7 hPa | 0 mm | - | 0 W/m² | - |
| 1777775066 | 6.67° C | 56% | 1019 hPa | 0 mm | - | 0 W/m² | - |
| 1777774762 | 6.67° C | 54% | 1018.9 hPa | 0 mm | - | 0 W/m² | - |
| 1777774458 | 6.67° C | 55% | 1018.8 hPa | 0 mm | - | 0 W/m² | - |
| 1777774156 | 6.67° C | 57% | 1018.8 hPa | 0 mm | - | 0 W/m² | - |
| 1777773854 | 6.67° C | 59% | 1018.8 hPa | 0 mm | - | 0 W/m² | - |
| 1777773549 | 6.67° C | 58% | 1018.7 hPa | 0 mm | - | 0 W/m² | - |
| 1777773247 | 6.67° C | 57% | 1018.8 hPa | 0 mm | - | 0 W/m² | - |
| 1777772942 | 6.67° C | 58% | 1018.5 hPa | 0 mm | - | 0 W/m² | - |
| 1777772640 | 6.67° C | 57% | 1018.8 hPa | 0 mm | - | 0 W/m² | - |
| 1777772338 | 6.67° C | 59% | 1018.7 hPa | 0 mm | - | 0 W/m² | - |
| 1777772034 | 6.67° C | 61% | 1018.4 hPa | 0 mm | - | 0 W/m² | - |
| 1777771731 | 6.67° C | 62% | 1018.6 hPa | 0 mm | - | 0 W/m² | - |
| 1777771429 | 6.67° C | 60% | 1018.4 hPa | 0 mm | - | 0 W/m² | - |
| 1777771126 | 6.67° C | 64% | 1018.3 hPa | 0 mm | - | 0 W/m² | - |
| 1777770823 | 6.11° C | 62% | 1018.3 hPa | 0 mm | - | 0 W/m² | - |
| 1777770519 | 5.56° C | 65% | 1018.2 hPa | 0 mm | - | 0 W/m² | - |
| 1777770217 | 5.56° C | 66% | 1018.2 hPa | 0 mm | - | 0 W/m² | - |
| 1777769913 | 5.56° C | 65% | 1018.3 hPa | 0 mm | - | 0 W/m² | - |
| 1777769611 | 5.56° C | 63% | 1018 hPa | 0 mm | - | 0 W/m² | - |
* Rain latest hour (hover to see other rain measurements)
** Current wind speed in m/s (hover to see current wind gust speed)